Theta_e
342 341 341 344 344 344 344 345 344 342 343 346 346 347 347 347 347 347 346 346 344 344 344 343 342 341 343 344 346 345 347 346 344 344 343 343 343 342
320 326 334 336 338 339 339 341 343 344 344 345 343 343 342 344 346 345 345 345 343 345 344 341 342 343 343 344 345 344 344 344 345 345 344 343 343 343
323 322 323 323 324 326 330 335 339 342 342 341 341 342 341 341 343 344 346 345 344 344 345 340 340 340 343 342 344 345 344 343 346 344 344 344 343 343
324 324 323 323 323 323 326 330 333 336 339 340 340 340 339 338 339 342 343 345 346 344 344 344 344 343 343 343 343 343 343 341 339 345 343 343 343 344
324 325 326 326 326 326 324 322 324 327 333 335 335 334 334 336 336 335 337 342 343 344 344 343 343 344 343 342 343 343 342 340 339 342 343 342 343 342
327 328 329 330 330 329 329 329 329 330 330 332 333 332 333 334 335 336 335 334 336 339 339 339 341 343 342 341 343 344 344 344 338 339 342 341 343 343
328 330 331 331 332 332 332 332 331 330 330 331 332 332 332 332 334 336 337 337 336 334 334 334 335 335 341 343 343 344 345 344 343 341 344 340 339 343
324 327 329 329 329 329 329 329 330 331 331 331 331 330 331 333 334 334 334 335 336 336 335 336 336 336 338 342 343 342 343 344 342 342 342 342 340 339
318 322 325 327 328 327 327 329 330 330 330 330 331 330 331 331 332 332 334 337 337 336 334 332 333 335 336 338 339 340 341 342 343 343 341 340 341 340
310 318 321 323 324 325 326 329 329 329 330 330 331 331 332 333 333 333 334 335 336 336 336 335 335 334 336 334 335 338 340 340 339 340 340 341 341 340
308 313 317 318 321 324 326 328 329 330 331 331 331 330 331 332 331 332 333 332 334 335 334 335 334 333 332 333 334 336 335 335 334 333 332 334 337 339
308 313 317 318 325 324 325 326 326 327 328 329 329 329 329 328 328 328 330 331 333 333 332 331 331 331 331 332 333 331 330 330 330 330 331 331 332 334
308 313 318 318 321 322 323 323 323 324 325 326 326 326 326 326 327 327 327 328 329 330 329 329 328 329 328 329 329 329 329 329 329 329 329 330 333 333
309 312 314 317 318 318 320 320 321 320 320 321 321 322 322 323 323 323 323 324 325 325 324 324 323 324 324 324 323 324 325 325 326 326 326 328 329 330
310 314 317 317 316 317 319 319 319 317 315 315 316 316 316 315 313 314 316 317 317 317 317 318 318 317 315 314 315 314 313 314 315 318 320 321 325 326
312 312 309 311 314 316 315 314 312 310 309 308 309 309 308 307 306 306 305 306 306 306 305 305 305 305 305 304 304 305 305 307 307 307 306 307 308 310
312 312 311 310 310 310 310 310 309 308 308 307 307 307 307 305 303 302 302 302 301 302 302 302 302 302 302 302 303 303 304 304 305 306 306 307 307 307
311 312 312 311 311 311 310 310 308 309 308 308 309 308 308 305 304 304 304 304 303 303 303 302 302 303 303 303 303 302 303 303 303 304 306 306 305 305
311 311 312 312 311 311 310 310 309 307 308 309 309 309 308 306 305 307 308 308 308 307 306 304 302 302 302 303 302 303 302 303 303 303 305 305 305 305
313 312 311 311 311 311 310 310 309 308 308 309 309 308 307 305 308 309 310 309 309 309 308 306 304 302 302 303 303 303 303 303 303 304 304 305 305 305
314 313 312 311 311 311 311 310 309 309 308 308 308 308 306 308 310 311 310 310 310 309 309 307 305 303 302 302 303 303 303 303 304 305 305 305 306 306
316 315 314 312 312 312 312 311 308 308 308 308 307 306 308 311 311 311 311 311 310 310 309 307 304 303 303 303 303 303 305 305 305 305 306 306 306 307
315 315 315 314 313 313 312 311 310 308 309 309 309 311 311 312 311 311 311 311 311 310 308 305 304 303 304 304 305 305 305 305 306 306 306 306 307 307
Wind_Speed
17 15 14 15 12 12 12 11 11 9 16 13 12 11 11 13 11 13 13 13 14 15 17 20 20 19 21 20 20 21 23 23 23 22 23 23 22 23
15 16 18 18 17 17 16 16 12 12 15 17 19 19 16 15 15 16 17 17 17 16 14 13 11 12 19 24 20 21 18 21 23 24 25 25 25 24
10 11 13 15 16 17 18 17 15 13 17 20 17 16 16 15 14 14 15 16 17 17 15 15 16 18 20 22 24 21 21 20 19 23 26 28 28 27
9 9 10 11 13 14 15 15 16 16 17 20 19 17 16 15 15 14 13 15 15 14 17 19 20 20 19 20 21 24 24 27 24 24 23 27 30 30
6 6 7 8 8 9 10 11 13 13 15 18 20 19 20 18 17 16 15 14 13 14 14 16 18 19 20 21 23 22 22 25 26 26 27 23 25 28
7 7 8 8 8 8 8 7 9 11 11 13 14 16 16 14 15 17 17 16 16 15 15 16 16 17 18 21 22 23 23 23 22 24 27 28 26 26
7 7 7 7 8 8 9 9 10 11 13 14 15 16 16 17 17 16 18 18 16 16 16 16 18 18 17 20 23 24 24 23 25 27 27 30 34 27
7 8 8 8 9 10 12 13 13 12 13 13 13 15 14 13 15 16 16 17 15 11 12 13 14 16 17 18 20 21 23 23 28 24 25 28 30 31
11 10 9 8 9 11 10 10 10 10 9 10 11 12 13 14 16 16 14 12 13 12 14 12 8 7 7 10 13 14 15 17 18 21 29 31 27 33
13 12 11 11 11 11 8 7 7 6 6 6 7 8 8 9 12 14 13 12 11 12 10 13 10 8 7 9 9 10 11 11 12 15 19 22 26 29
12 10 10 11 9 8 8 6 5 6 3 3 5 6 8 11 13 13 11 11 9 7 9 11 9 11 8 4 6 7 10 12 12 13 13 14 15 21
11 10 9 8 5 5 7 5 5 5 5 6 8 9 11 12 11 11 9 8 7 5 6 7 8 9 5 5 5 8 9 10 11 12 13 15 16 16
9 7 5 4 6 7 8 8 9 8 7 7 7 8 9 9 9 9 9 8 7 6 8 10 11 11 10 12 14 16 16 15 14 14 14 15 15 16
8 7 6 4 5 5 6 6 8 7 7 7 7 6 5 5 6 7 9 10 9 10 12 12 13 15 16 18 18 17 18 20 20 20 21 19 18 17
6 5 6 7 6 6 7 6 7 6 6 6 5 5 5 6 6 7 7 9 10 12 15 16 16 16 17 18 21 22 22 20 21 19 20 21 22 23
4 5 6 7 6 4 4 6 7 8 6 5 5 5 6 6 6 6 6 7 8 9 12 14 15 17 17 18 19 20 20 19 23 23 24 23 22 23
4 6 6 4 4 5 5 6 8 7 6 5 4 3 4 4 6 8 10 10 11 12 13 13 14 15 17 19 20 20 22 22 23 26 26 27 25 23
8 9 9 8 7 7 7 7 8 8 6 4 3 3 3 3 6 9 11 13 15 17 19 20 22 23 22 21 18 20 23 24 25 27 26 29 30 27
11 10 11 11 11 10 10 10 10 9 9 8 6 5 4 4 6 7 11 14 16 19 21 23 24 26 28 26 29 25 26 30 31 30 27 29 32 32
16 14 13 12 13 12 11 12 11 10 9 9 8 7 6 4 5 8 11 15 19 22 25 25 26 26 27 28 31 34 27 28 28 29 30 31 34 36
19 19 17 14 13 13 13 13 13 13 10 10 10 8 6 6 7 10 14 16 20 24 28 29 29 29 30 30 30 31 32 27 23 26 28 32 35 35
19 19 18 16 14 14 15 16 14 14 14 12 9 8 7 8 10 13 17 21 23 25 29 32 33 32 30 28 29 32 33 31 28 27 27 29 31 30
21 21 19 18 16 15 15 16 16 15 14 13 11 9 9 11 14 18 21 24 26 28 30 34 35 32 29 27 29 32 33 34 36 37 38 33 33 32
Wind_Direction
274 275 276 278 281 285 289 290 294 300 308 314 322 307 297 285 278 272 262 277 270 267 281 272 266 251 235 250 247 249 249 252 248 244 245 247 250 248
278 275 272 272 272 276 280 284 284 281 284 294 306 308 304 296 287 274 270 270 277 271 282 272 264 259 257 248 238 245 247 251 254 248 245 246 246 246
295 289 282 280 276 273 272 273 275 281 286 293 301 309 311 306 297 284 278 276 274 268 267 255 248 258 259 249 244 242 247 250 260 256 247 245 247 249
304 299 292 292 289 283 275 271 271 272 283 290 297 305 309 311 306 300 290 281 275 270 262 256 255 259 256 251 248 251 250 251 246 261 258 249 247 248
329 327 326 325 318 312 303 286 276 276 277 287 296 300 301 306 306 302 298 291 286 280 272 268 268 265 257 254 253 252 251 249 244 250 256 254 252 251
344 343 340 334 331 335 330 310 295 290 288 290 295 298 305 308 315 314 304 296 286 280 280 279 277 272 265 259 256 256 255 246 243 249 250 246 255 255
329 327 324 328 330 325 319 311 303 297 293 292 296 299 298 299 306 314 317 315 305 293 283 278 275 275 272 265 259 254 253 246 250 255 256 250 248 255
316 294 291 296 305 313 315 311 306 308 305 303 306 308 316 312 309 311 315 317 325 324 307 291 292 279 274 275 277 269 256 253 251 258 238 243 247 250
313 300 298 296 304 312 311 308 306 308 311 309 312 310 315 320 320 318 317 310 315 325 317 320 324 322 304 289 287 285 276 271 267 258 246 257 256 248
321 306 307 306 307 308 309 313 313 319 311 303 299 305 317 333 334 335 322 307 303 306 308 315 325 320 320 310 297 294 293 291 287 277 270 266 259 258
320 306 308 309 312 303 300 305 315 321 344 344 334 328 322 324 320 320 323 317 310 291 276 297 307 311 319 282 277 298 308 309 308 303 299 294 285 269
319 313 314 321 334 327 327 320 323 294 280 287 296 302 308 318 323 325 320 307 307 292 289 310 301 311 312 276 276 300 316 321 323 316 308 300 293 288
319 313 303 322 312 305 311 329 329 320 310 305 307 306 300 299 303 310 318 324 318 301 309 320 313 313 308 290 294 299 304 308 309 308 308 306 299 295
312 313 301 315 317 303 290 294 317 335 330 322 316 305 301 303 315 323 320 317 318 317 315 316 313 311 310 308 306 299 301 303 300 298 297 293 290 291
302 300 290 273 290 293 285 291 309 316 316 314 311 318 327 330 333 315 307 305 310 306 306 309 311 309 307 304 304 307 307 303 298 294 290 287 283 279
306 305 314 276 275 269 283 293 302 306 309 309 306 319 330 330 326 324 319 308 301 298 311 311 310 310 307 305 304 305 304 304 301 301 299 296 291 286
294 283 291 299 285 277 286 304 303 301 301 287 291 317 331 352 6 10 7 0 355 344 337 331 326 319 312 308 306 304 300 300 301 304 305 303 299 295
291 280 279 283 285 283 288 298 300 283 273 272 276 298 309 330 353 3 10 12 8 3 357 350 344 336 331 323 322 315 311 307 303 301 301 305 306 307
301 293 283 283 284 291 294 291 298 278 259 257 260 272 266 306 338 351 353 354 354 352 352 350 346 340 333 324 320 321 317 316 312 306 302 303 305 307
294 296 293 284 283 284 294 289 289 273 263 251 258 264 257 282 317 331 338 338 337 339 340 341 340 334 326 317 310 313 319 314 314 309 308 306 303 307
286 291 292 284 281 280 284 286 279 258 265 257 259 257 258 287 314 325 327 329 326 326 327 330 332 327 320 314 308 312 317 320 316 311 310 306 307 307
289 285 290 276 269 280 282 284 278 258 254 258 255 247 256 279 305 318 321 320 319 317 319 323 325 324 320 316 310 311 315 315 314 308 302 301 302 294
280 284 275 272 265 270 277 276 277 261 252 247 243 245 258 281 298 306 311 314 313 313 317 319 321 321 319 316 312 312 313 315 317 316 313 315 313 303